Tracking 20626 objects as of 10-Apr-2020
HD Live streaming from Space Station
objects crossing your sky now

PEGASUS DEB

Track PEGASUS DEB now!
10-day predictions


NORAD ID: 24978
Int'l Code: 1994-029ACL
Perigee: 488.9 km
Apogee: 953.9 km
Inclination: 81.4 °
Period: 99.1 minutes
Semi major axis: 7092 km
RCS: 0.0093 m2 (small)
Launch date: May 19, 1994
Source: United States (US)
Launch site: AIR FORCE WESTERN TEST RANGE (AFWTR)

Note: This is SATELLITE DEBRIS
aabbcc
Your satellite tracking list
Your tracking list is empty




NASA's NSSDC Master Catalog

Two Line Element Set (TLE):
1 24978U 94029ACL 20099.95259480  .00000774  00000-0  88247-4 0  9997
2 24978  81.4436  85.7979 0327819 274.6782  81.7051 14.53492060223822
Source of the keplerian elements: AFSPC